TimeEST,TemperatureF,Dew PointF,Humidity,Sea Level PressureIn,VisibilityMPH,Wind Direction,Wind SpeedMPH,Gust SpeedMPH,PrecipitationIn,Events,Conditions,WindDirDegrees,DateUTC
12:15 AM,23.0,14.0,68,30.31,10.0,WNW,4.6,-,N/A,,Clear,290,2013-02-22 05:15:00
12:35 AM,23.0,14.0,68,30.30,10.0,North,5.8,-,N/A,,Clear,360,2013-02-22 05:35:00
12:55 AM,23.0,14.0,68,30.29,10.0,North,8.1,-,N/A,,Clear,350,2013-02-22 05:55:00
1:15 AM,23.0,14.0,68,30.29,10.0,NNE,6.9,-,N/A,,Clear,20,2013-02-22 06:15:00
1:35 AM,23.0,14.0,68,30.29,10.0,North,6.9,-,N/A,,Clear,10,2013-02-22 06:35:00
1:55 AM,21.2,14.0,74,30.31,10.0,North,4.6,-,N/A,,Clear,10,2013-02-22 06:55:00
2:15 AM,21.2,14.0,74,30.32,10.0,NNW,4.6,-,N/A,,Clear,330,2013-02-22 07:15:00
2:35 AM,21.2,14.0,74,30.32,10.0,WNW,3.5,-,N/A,,Clear,290,2013-02-22 07:35:00
2:55 AM,21.2,14.0,74,30.32,10.0,WNW,3.5,-,N/A,,Clear,290,2013-02-22 07:55:00
3:15 AM,21.2,14.0,74,30.33,10.0,NNW,4.6,-,N/A,,Clear,340,2013-02-22 08:15:00
3:35 AM,21.2,14.0,74,30.31,10.0,North,6.9,-,N/A,,Clear,360,2013-02-22 08:35:00
3:55 AM,23.0,14.0,68,30.32,10.0,North,4.6,-,N/A,,Clear,360,2013-02-22 08:55:00
4:15 AM,23.0,14.0,68,30.32,10.0,NNE,3.5,-,N/A,,Clear,20,2013-02-22 09:15:00
4:35 AM,23.0,14.0,68,30.33,10.0,North,4.6,-,N/A,,Clear,360,2013-02-22 09:35:00
4:55 AM,23.0,15.8,74,30.32,10.0,Calm,Calm,-,N/A,,Clear,0,2013-02-22 09:55:00
5:15 AM,21.2,15.8,80,30.34,10.0,Calm,Calm,-,N/A,,Clear,0,2013-02-22 10:15:00
5:35 AM,23.0,15.8,74,30.35,10.0,Calm,Calm,-,N/A,,Clear,0,2013-02-22 10:35:00
5:55 AM,23.0,15.8,74,30.36,10.0,Calm,Calm,-,N/A,,Clear,0,2013-02-22 10:55:00
6:15 AM,23.0,15.8,74,30.34,10.0,NNE,3.5,-,N/A,,Clear,30,2013-02-22 11:15:00
6:35 AM,23.0,15.8,74,30.34,10.0,Calm,Calm,-,N/A,,Clear,0,2013-02-22 11:35:00
7:15 AM,23.0,15.8,74,30.38,10.0,Calm,Calm,-,N/A,,Clear,0,2013-02-22 12:15:00
7:55 AM,23.0,15.8,74,30.38,10.0,Calm,Calm,-,N/A,,Clear,0,2013-02-22 12:55:00
8:15 AM,24.8,17.6,74,30.39,10.0,NE,3.5,-,N/A,,Clear,50,2013-02-22 13:15:00
8:55 AM,26.6,17.6,69,30.38,10.0,NE,6.9,-,N/A,,Clear,50,2013-02-22 13:55:00
9:55 AM,28.4,17.6,64,30.36,10.0,East,5.8,-,N/A,,Clear,80,2013-02-22 14:55:00
10:35 AM,30.2,17.6,60,30.36,10.0,East,5.8,-,N/A,,Clear,80,2013-02-22 15:35:00
10:55 AM,32.0,19.4,60,30.36,10.0,East,5.8,-,N/A,,Clear,90,2013-02-22 15:55:00
11:15 AM,32.0,19.4,60,30.35,10.0,East,5.8,-,N/A,,Clear,80,2013-02-22 16:15:00
11:35 AM,32.0,19.4,60,30.34,10.0,East,5.8,-,N/A,,Clear,80,2013-02-22 16:35:00
11:55 AM,32.0,19.4,60,30.34,10.0,East,8.1,-,N/A,,Clear,100,2013-02-22 16:55:00
12:15 PM,32.0,19.4,60,30.33,10.0,East,8.1,-,N/A,,Clear,100,2013-02-22 17:15:00
12:35 PM,33.8,19.4,56,30.32,10.0,East,6.9,-,N/A,,Clear,90,2013-02-22 17:35:00
12:55 PM,35.6,19.4,52,30.30,10.0,ESE,11.5,-,N/A,,Partly Cloudy,120,2013-02-22 17:55:00
1:35 PM,35.6,21.2,56,30.29,10.0,ESE,8.1,-,N/A,,Mostly Cloudy,120,2013-02-22 18:35:00
2:15 PM,35.6,21.2,56,30.29,10.0,SE,8.1,-,N/A,,Mostly Cloudy,140,2013-02-22 19:15:00
2:35 PM,35.6,21.2,56,30.28,10.0,East,5.8,-,N/A,,Overcast,100,2013-02-22 19:35:00
2:55 PM,35.6,23.0,60,30.28,10.0,SE,6.9,-,N/A,,Mostly Cloudy,140,2013-02-22 19:55:00
3:15 PM,35.6,23.0,60,30.28,10.0,SE,6.9,-,N/A,,Overcast,130,2013-02-22 20:15:00
3:35 PM,35.6,23.0,60,30.29,10.0,SE,5.8,-,N/A,,Overcast,140,2013-02-22 20:35:00
6:35 PM,33.8,23.0,65,30.28,10.0,Calm,Calm,-,N/A,,Overcast,0,2013-02-22 23:35:00
6:55 PM,33.8,23.0,65,30.28,10.0,Calm,Calm,-,N/A,,Overcast,0,2013-02-22 23:55:00
7:15 PM,33.8,23.0,65,30.29,10.0,SE,3.5,-,N/A,,Overcast,130,2013-02-23 00:15:00
7:35 PM,33.8,24.8,70,30.29,10.0,Calm,Calm,-,N/A,,Overcast,0,2013-02-23 00:35:00
7:55 PM,33.8,24.8,70,30.29,10.0,SE,5.8,-,N/A,,Overcast,130,2013-02-23 00:55:00
8:15 PM,33.8,24.8,70,30.28,10.0,ESE,5.8,-,N/A,,Overcast,110,2013-02-23 01:15:00
8:35 PM,33.8,26.6,75,30.28,10.0,ESE,5.8,-,N/A,,Overcast,120,2013-02-23 01:35:00
8:55 PM,33.8,26.6,75,30.27,10.0,ESE,6.9,-,N/A,,Overcast,120,2013-02-23 01:55:00
9:15 PM,32.0,26.6,80,30.27,10.0,ESE,5.8,-,N/A,,Overcast,110,2013-02-23 02:15:00
9:35 PM,32.0,26.6,80,30.27,10.0,ESE,5.8,-,N/A,,Overcast,120,2013-02-23 02:35:00
9:55 PM,32.0,26.6,80,30.28,10.0,SE,5.8,-,N/A,,Overcast,130,2013-02-23 02:55:00
10:15 PM,32.0,26.6,80,30.27,10.0,SE,6.9,-,N/A,,Overcast,130,2013-02-23 03:15:00
10:35 PM,32.0,28.4,87,30.25,10.0,ESE,5.8,-,N/A,,Overcast,110,2013-02-23 03:35:00
10:55 PM,32.0,28.4,87,30.24,10.0,East,4.6,-,N/A,,Overcast,100,2013-02-23 03:55:00
11:15 PM,32.0,28.4,87,30.24,10.0,Calm,Calm,-,N/A,,Overcast,0,2013-02-23 04:15:00
11:35 PM,32.0,28.4,87,30.24,10.0,ESE,4.6,-,N/A,,Overcast,120,2013-02-23 04:35:00
11:55 PM,32.0,28.4,87,30.24,10.0,Calm,Calm,-,N/A,,Mostly Cloudy,0,2013-02-23 04:55:00